Location: Aytr�
(46.1357°N, 1.1145°W)
Time: 14:50:38
(UTC+00:00)

ASTEX 1 - Pass Details

Date: 03 March 2021
Orbit: 721 x 743 km, 92.7° (Epoch: 19 April)

Event Time Altitude Azimuth Distance (km) Brightness Sun altitude
Rises 19:20:44 0° 13° (NNE) 3,150 6.6 -15.8°
Reaches altitude 10° 19:23:12 10° 22° (NNE) 2,222 5.8 -16.3°
Maximum altitude 19:27:43 36° 89° (E) 1,134 3.9 -17.0°
Enters shadow 19:30:10 22° 140° (SE) 1,534 4.6 -17.4°
